Hourly Data Report for September 20, 2017

All times are specified in Local Standard Time (LST). Add 1 hour to adjust for Daylight Saving Time where and when it is observed.

KUGLUKTUK A
NUNAVUT

67°49'00.000" N
115°08'38.000" W
22.60 m
2300903
71938
YCO

Download Data

Hourly Data (September 2017)
Hourly Data Report for September 20, 2017
Temp Definition
°C
Dew Point Temp Definition
°C
Rel Hum Definition
%
Wind Dir Definition
10's deg

Wind Spd Definition
km/h
Visibility Definition
km
Stn Press Definition
kPa
Hmdx Definition


Wind Chill Definition


Weather Definition


TIME
00:00 Legend Double Dagger 3.4 2.5 94 10 15 24.1 101.91     LegendNANA
01:00 Legend Double Dagger 2.9 1.7 92 11 18 24.1 101.95     LegendNANA
02:00 Legend Double Dagger 2.9 1.8 92 10 17 24.1 101.97     Clear
03:00 Legend Double Dagger 2.4 1.4 93 10 14 24.1 101.97     LegendNANA
04:00 Legend Double Dagger 2.2 1.4 94 10 14 24.1 102.01     LegendNANA
05:00 Legend Double Dagger 2.1 1.1 93 10 16 24.1 102.05     Mainly Clear
06:00 Legend Double Dagger 2.6 1.5 93 12 11 24.1 102.10     LegendNANA
07:00 Legend Double Dagger 3.3 2.1 91 11 10 24.1 102.11     LegendNANA
08:00 Legend Double Dagger 4.3 2.9 91 10 8 24.1 102.14     Cloudy
09:00 Legend Double Dagger 5.2 2.8 84 8 14 24.1 102.16     LegendNANA
10:00 Legend Double Dagger 5.1 3.7 91 10 10 24.1 102.15     LegendNANA
11:00 Legend Double Dagger 5.2 3.9 91 9 11 24.1 102.17     Cloudy
12:00 Legend Double Dagger 5.3 3.4 87 8 15 24.1 102.18     LegendNANA
13:00 Legend Double Dagger 5.8 3.5 85 7 11 24.1 102.15     Drizzle
14:00 Legend Double Dagger 5.7 2.9 82 6 18 24.1 102.16     Cloudy
15:00 Legend Double Dagger 5.7 3.1 83 7 18 24.1 102.17     LegendNANA
16:00 Legend Double Dagger 5.8 3.1 83 7 20 24.1 102.17     LegendNANA
17:00 Legend Double Dagger 5.5 2.3 80 8 18 24.1 102.19     Mostly Cloudy
18:00 Legend Double Dagger 5.4 2.5 81 7 17 24.1 102.18     LegendNANA
19:00 Legend Double Dagger 4.3 2.3 86 8 14 24.1 102.17     LegendNANA
20:00 Legend Double Dagger 4.3 2.1 86 7 12 24.1 102.18     Mainly Clear
21:00 Legend Double Dagger 3.6 2.0 89 7 13 24.1 102.16     LegendNANA
22:00 Legend Double Dagger 2.1 0.5 89 11 15 24.1 102.13     LegendNANA
23:00 Legend Double Dagger 1.0 -0.3 91 11 10 24.1 102.12     Clear

Notes on Data Quality.

Legend

  • E = Estimated
  • M = Missing
  • NA = Not Available
  • ‡ = Partner data that is not subject to review by the National Climate Archives
Date modified: